Regional Weather Roundup
Issued by NWS Charleston, WV

Home | Current Version | Previous Version | Graphics & Text | Print | Product List | Glossary On
Versions: 1 2 3 4 5 6 7 8 9 10 11 12 13 14 15 16 17 18 19 20 21 22 23 24 25 26 27 28 29 30 31 32 33 34 35 36 37 38 39 40 41 42 43 44 45 46 47 48 49 50
415
ASUS41 KRLX 250110
RWRRLX
CRWRWRRLX ALL
West Virginia Regional Weather Roundup
National Weather Service Charleston WV
Issued by National Weather Service Pittsburgh PA
800 PM EST FRI FEB 24 2017

Note: "fair" indicates few or no clouds below 12,000 feet with no
significant weather and/or obstructions to visibility.

WVZ003-250200-
Northern Panhandle of West Virginia

CITY           SKY/WX    TMP DP  RH WIND       PRES   REMARKS
WHEELING       CLEAR     68  44  42 S5        29.61S
$$

WVZ009-250200-
Northwest West Virginia

CITY           SKY/WX    TMP DP  RH WIND       PRES   REMARKS
PARKERSBURG    CLEAR     72  43  35 S3        29.62S
$$

WVZ006-250200-
Western West Virginia

CITY           SKY/WX    TMP DP  RH WIND       PRES   REMARKS
HUNTINGTON     CLEAR     71  45  39 S7        29.61S
$$

WVZ015-250200-
West Central West Virginia

CITY           SKY/WX    TMP DP  RH WIND       PRES   REMARKS
CHARLESTON     PTCLDY    72  42  34 S7        29.63R
$$

WVZ031-250200-
North Central West Virginia

CITY           SKY/WX    TMP DP  RH WIND       PRES   REMARKS
CLARKSBURG     CLEAR     71  47  42 S14G22    29.64S
MORGANTOWN     CLEAR     72  45  37 S13G22    29.64F
$$

WVZ035-042-250200-
South Central West Virginia

CITY           SKY/WX    TMP DP  RH WIND       PRES   REMARKS
BECKLEY        CLOUDY    63  48  58 SE15G23   29.74F
BLUEFIELD      CLOUDY    60  47  61 S12G24    29.79S
$$

WVZ045-250200-
Greenbrier Valley of West Virginia

CITY           SKY/WX    TMP DP  RH WIND       PRES   REMARKS
LEWISBURG      CLEAR     62  49  62 S5        29.79F
$$

WVZ047-250200-
Northern Mountains of West Virginia

CITY           SKY/WX    TMP DP  RH WIND       PRES   REMARKS
ELKINS         CLOUDY    65  46  50 S10       29.73F
$$

WVZ052-250200-
Eastern Panhandle of West Virginia

CITY           SKY/WX    TMP DP  RH WIND       PRES   REMARKS
MARTINSBURG    CLOUDY    67  50  54 S8        29.75S
PETERSBURG     CLOUDY    64  50  59 CALM      29.74S
$$




USA.gov is the U.S. government's official web portal to all federal, state and local government web resources and services.